Regional Weather Roundup
Issued by NWS

Home | Current Version | Previous Version | Text Only | Print | Product List | Glossary Off
Versions: 1 2 3 4 5 6 7 8 9 10 11 12 13 14 15 16 17 18 19 20 21 22 23 24 25 26 27 28 29 30 31 32 33 34 35 36 37 38 39 40 41 42 43 44 45 46 47 48 49 50

000
ASUS43 KDTX 161210
RWRMI
MICHIGAN HOURLY REGIONAL WEATHER ROUNDUP
NATIONAL WEATHER SERVICE DETROIT/PONTIAC MI
800 AM EDT WED APR 16 2014

NOTE: "FAIR" INDICATES FEW OR NO CLOUDS BELOW 12,000 FEET WITH NO
SIGNIFICANT WEATHER AND/OR OBSTRUCTION TO VISIBILITY.

MIZ047>049-052>055-059>063-066>070-074>076-081>083-161300-
SOUTHEAST LOWER MICHIGAN

CITY           SKY/WX    TMP DP  RH WIND       PRES   REMARKS
ADRIAN         SUNNY     24  19  81 CALM      30.40R
6HR MIN TEMP:  20; 6HR MAX TEMP:  24;

ALMA           SUNNY     26  21  80 S3        30.37R
ANN ARBOR      SUNNY     21  17  84 CALM      30.40R
BAD AXE        SUNNY     25  20  83 SW3       30.38R
6HR MIN TEMP:  19; 6HR MAX TEMP:  25;

DETROIT CITY   SUNNY     27  17  66 CALM      30.42R
6HR MIN TEMP:  23; 6HR MAX TEMP:  27;

DETROIT        MOSUNNY   24  17  74 CALM      30.42R
6HR MIN TEMP:  22; 6HR MAX TEMP:  27;

FLINT          SUNNY     25  17  72 S5        30.39R
6HR MIN TEMP:  19; 6HR MAX TEMP:  25;

GROSSE ILE     SUNNY     27  19  74 CALM      30.41R
HILLSDALE      SUNNY     25  17  72 S3        30.35R
HOWELL         MOSUNNY   21  17  84 CALM      30.38R
6HR MIN TEMP:  17; 6HR MAX TEMP:  22;


CITY           SKY/WX    TMP DP  RH WIND       PRES   REMARKS
JACKSON        SUNNY     23  17  78 SE3       30.36R
6HR MIN TEMP:  18; 6HR MAX TEMP:  23;

LAMBERTVILLE   SUNNY     27  21  80 CALM      30.41R
LANSING        SUNNY     24  17  74 CALM      30.38R
6HR MIN TEMP:  21; 6HR MAX TEMP:  24;

LAPEER         NOT AVBL
MASON          SUNNY     24  16  74 S3        30.37R
MONROE         SUNNY     25  19  80 CALM      30.40R
MT. CLEMENS    MOSUNNY   27  16  63 SW6       30.39R
6HR MIN TEMP:  19; 6HR MAX TEMP:  27;

PONTIAC        MOSUNNY   23  17  78 SW3       30.38R
6HR MIN TEMP:  18; 6HR MAX TEMP:  23;

PORT HOPE        N/A     28  20  71 CALM      30.36R
6HR MIN TEMP:  23; 6HR MAX TEMP:  28;

PORT HURON     SUNNY     21  19  93 CALM      30.41R
TRI CITIES     SUNNY     27  20  75 S6        30.39R
6HR MIN TEMP:  24; 6HR MAX TEMP:  27;

YPSILANTI      SUNNY     26  17  68 SW3       30.41R
6HR MIN TEMP:  21; 6HR MAX TEMP:  26;

$$
MIZ043>046-050>051-056>058-064>065-071>073-077>080-161300-
SOUTHWEST LOWER MICHIGAN

CITY           SKY/WX    TMP DP  RH WIND       PRES   REMARKS
BATTLE CREEK   SUNNY     25  15  66 S8        30.35R
6HR MIN TEMP:  21; 6HR MAX TEMP:  25;

BENTON HARBOR  MOCLDY    27  17  66 SE9       30.33R
6HR MIN TEMP:  22; 6HR MAX TEMP:  27;

BIG RAPIDS     SUNNY     22  22 100 CALM      30.33R
6HR MIN TEMP:  20; 6HR MAX TEMP:  24;

COLDWATER      SUNNY     26  16  65 SE5       30.35R
6HR MIN TEMP:  21; 6HR MAX TEMP:  26;

HOLLAND        CLEAR     28  18  66 SE8       30.34R
6HR MIN TEMP:  24; 6HR MAX TEMP:  28;

GRAND RAPIDS   PTSUNNY   26  18  71 SE6       30.35R
6HR MIN TEMP:  22; 6HR MAX TEMP:  26;

KALAMAZOO      SUNNY     27  14  58 SE8       30.35R
6HR MIN TEMP:  22; 6HR MAX TEMP:  27;

MARSHALL       SUNNY     24  16  71 S3        30.35R
MUSKEGON       PTCLDY    28  18  66 SE7       30.34R
6HR MIN TEMP:  22; 6HR MAX TEMP:  28;

$$
MIZ016>042-161300-
NORTHERN LOWER MICHIGAN

CITY           SKY/WX    TMP DP  RH WIND       PRES   REMARKS
ALPENA         SUNNY     18  17  96 SW3       30.36R
6HR MIN TEMP:  12; 6HR MAX TEMP:  22; 6HR PCP: TRACE;

BEAVER ISLAND  SUNNY     18  16  92 SE3       30.31R
6HR MIN TEMP:   8; 6HR MAX TEMP:  18;

BELLAIRE       SUNNY     22  20  90 CALM      30.33R
6HR MIN TEMP:  20; 6HR MAX TEMP:  26;

CADILLAC       SUNNY     20  17  88 CALM      30.28R
CHARLEVOIX     SUNNY     19  19  96 SE5       30.35R
6HR MIN TEMP:  13; 6HR MAX TEMP:  19;

FRANKFORT      SUNNY     24  21  86 SE3       30.31R
GAYLORD        CLOUDY    20  19  96 SW5       30.29R
6HR MIN TEMP:  16; 6HR MAX TEMP:  20;

GRAYLING       SUNNY     15  13  89 CALM      30.31R
6HR MIN TEMP:  12; 6HR MAX TEMP:  19;

HARBOR SPRINGS SUNNY     13  11  89 CALM      30.33R
HOUGHTON LAKE  SUNNY     18  15  88 CALM      30.32R
6HR MIN TEMP:  15; 6HR MAX TEMP:  23; 6HR PCP: TRACE;

MANISTEE       CLEAR     25  19  80 S6        30.32R
OSCODA         SUNNY     20  15  81 CALM      30.36R
PELLSTON       FOG        7   5  91 CALM      30.34R VSB 1
6HR MIN TEMP:   1; 6HR MAX TEMP:  11;

TRAVERSE CITY  SUNNY     20  18  92 CALM      30.31R
6HR MIN TEMP:  17; 6HR MAX TEMP:  24; 6HR PCP: TRACE;

$$
MIZ007>008-015-161300-
EASTERN UPPER MICHIGAN

CITY           SKY/WX    TMP DP  RH WIND       PRES   REMARKS
KINROSS        SUNNY     12  10  92 CALM      30.32R
6HR MIN TEMP:   5; 6HR MAX TEMP:  12;

MACKINAC ISLAN SUNNY     19  14  79 S7        30.32R
6HR MIN TEMP:  12; 6HR MAX TEMP:  19;

NEWBERRY       SUNNY     14  10  85 S9        30.29R
6HR MIN TEMP:  -1; 6HR MAX TEMP:  14;

S. S. MARIE    SUNNY     13   9  84 E3        30.32R
6HR MIN TEMP:   9; 6HR MAX TEMP:  14;

$$
MIZ004>006-011>014-085-161300-
CENTRAL UPPER MICHIGAN

CITY           SKY/WX    TMP DP  RH WIND       PRES   REMARKS
MANISTIQUE     CLEAR     20  18  93 SE7       30.30R
6HR MIN TEMP:   4; 6HR MAX TEMP:  20;

ESCANABA       PTCLDY    16  12  86 CALM      30.28R
6HR MIN TEMP:  10; 6HR MAX TEMP:  16;

MENOMINEE      PTCLDY    19  18  93 CALM      30.27R
6HR MIN TEMP:  18; 6HR MAX TEMP:  21;

SAWYER-GWINN   CLEAR      1  -2  85 CALM      30.23R
$$
MIZ001>003-009>011-084-161300-
WESTERN UPPER MICHIGAN

CITY           SKY/WX    TMP DP  RH WIND       PRES   REMARKS
IRON MOUNTAIN  MOCLDY    10   7  87 CALM      30.22R
6HR MIN TEMP:   6; 6HR MAX TEMP:  12;

HOUGHTON       PTCLDY    17   0  47 CALM      30.20R
6HR MIN TEMP:   8; 6HR MAX TEMP:  18;

COPPER HARBOR    N/A     17   5  59 SW5       30.24R
6HR MIN TEMP:  14; 6HR MAX TEMP:  20;

IRONWOOD       CLOUDY    21   5  49 SE8       30.14R
6HR MIN TEMP:  12; 6HR MAX TEMP:  23;

$$

ABBREVIATIONS USED IN REMARKS
   TC - TEMPERATURE IN CELSIUS
  WCI - WIND CHILL INDEX
   HX - HEAT INDEX
  VSB - VISIBILITY




USA.gov is the U.S. government's official web portal to all federal, state and local government web resources and services.